This is the latest recevied weather packets stored in our database for station/object DL1MX-13. If no packets are shown the sender has not sent any weather packets the latest 1 day(s).
| Time | Temp. | Humidity | Pressure | Rain* | Wind** | Luminosity | Snow |
|---|---|---|---|---|---|---|---|
| 1777995182 | 12.78° C | 89% | 1008.5 hPa | 0 mm | 2.68 m/s, 215° | - | - |
| 1777995122 | 12.78° C | 89% | 1008.5 hPa | 0 mm | 3.58 m/s, 217° | - | - |
| 1777995062 | 12.78° C | 89% | 1008.6 hPa | 0 mm | 3.58 m/s, 217° | - | - |
| 1777995002 | 12.78° C | 89% | 1008.6 hPa | 0 mm | 3.58 m/s, 217° | - | - |
| 1777994942 | 12.78° C | 89% | 1008.6 hPa | 0 mm | 2.68 m/s, 207° | - | - |
| 1777994881 | 12.78° C | 89% | 1008.5 hPa | 0 mm | 2.68 m/s, 207° | - | - |
| 1777994822 | 12.78° C | 89% | 1008.6 hPa | 0 mm | 2.68 m/s, 207° | - | - |
| 1777994773 | 12.78° C | 89% | 1008.6 hPa | 0 mm | 2.68 m/s, 222° | - | - |
| 1777994702 | 12.78° C | 89% | 1008.6 hPa | 0 mm | 2.68 m/s, 222° | - | - |
| 1777994642 | 12.78° C | 89% | 1008.6 hPa | 0 mm | 2.68 m/s, 222° | - | - |
| 1777994582 | 12.78° C | 89% | 1008.5 hPa | 0 mm | 2.24 m/s, 225° | - | - |
| 1777994522 | 12.78° C | 89% | 1008.6 hPa | 0 mm | 2.24 m/s, 225° | - | - |
| 1777994461 | 12.78° C | 89% | 1008.6 hPa | 0 mm | 1.79 m/s, 225° | - | - |
| 1777994402 | 12.78° C | 89% | 1008.6 hPa | 0 mm | 1.79 m/s, 225° | - | - |
| 1777994341 | 12.78° C | 89% | 1008.5 hPa | 0 mm | 1.79 m/s, 225° | - | - |
| 1777994282 | 12.78° C | 89% | 1008.5 hPa | 0 mm | 1.79 m/s, 225° | - | - |
| 1777994222 | 12.78° C | 89% | 1008.6 hPa | 0 mm | 1.79 m/s, 225° | - | - |
| 1777994162 | 12.78° C | 89% | 1008.6 hPa | 0 mm | 2.68 m/s, 222° | - | - |
| 1777994102 | 12.78° C | 89% | 1008.6 hPa | 0 mm | 5.81 m/s, 220° | - | - |
| 1777994042 | 12.78° C | 89% | 1008.6 hPa | 0 mm | 2.24 m/s, 217° | - | - |
| 1777993982 | 12.78° C | 89% | 1008.6 hPa | 0 mm | 2.68 m/s, 222° | - | - |
| 1777993921 | 12.78° C | 89% | 1008.6 hPa | 0 mm | 2.68 m/s, 222° | - | - |
| 1777993862 | 12.78° C | 89% | 1008.6 hPa | 0 mm | 2.68 m/s, 222° | - | - |
| 1777993801 | 12.78° C | 89% | 1008.6 hPa | 0 mm | 2.68 m/s, 222° | - | - |
| 1777993742 | 12.78° C | 89% | 1008.6 hPa | 0 mm | 3.13 m/s, 225° | - | - |
* Rain since midnight (hover to see other rain measurements)
** Current wind speed in m/s (hover to see current wind gust speed)